Location: G�ndlingen
(48.0142°N, 7.6396°E)
Time: 19:16:09
(UTC+00:00)

Cosmos 967 Rocket - Pass Details

Date: 05 July 2020
Orbit: 947 x 991 km, 65.8° (Epoch: 12 August)

Event Time Altitude Azimuth Distance (km) Brightness Sun altitude
Exits shadow 21:55:34 - 208° (SSW) 3,068 6.7 -15.9°
Reaches altitude 10° 21:56:27 10° 207° (SSW) 2,744 6.5 -16.0°
Maximum altitude 22:02:53 77° 123° (ESE) 1,019 4.5 -16.4°
Drops below altitude 10° 22:09:21 10° 39° (NE) 2,757 7.3 -16.8°
Sets 22:11:56 0° 38° (NE) 3,706 8.0 -16.9°
